Date,TemperatureHighF,TemperatureAvgF,TemperatureLowF,DewpointHighF,DewpointAvgF,DewpointLowF,HumidityHigh,HumidityAvg,HumidityLow,PressureMaxIn,PressureMinIn,WindSpeedMaxMPH,WindSpeedAvgMPH,GustSpeedMaxMPH,PrecipitationSumIn
2013-10-1,81.9,59.2,36.9,47.0,36.4,29.0,78,48,17,29.97,29.92,12,3,15,0.00
2013-10-2,77.2,57.6,39.7,53.7,42.0,31.3,92,60,25,29.96,29.90,11,3,14,0.00
2013-10-3,69.3,54.2,37.9,58.0,48.9,37.7,100,85,50,29.93,29.83,12,3,14,0.00
2013-10-4,75.4,60.3,39.9,47.6,28.1,19.4,100,40,14,30.08,29.89,27,11,34,0.00
2013-10-5,74.8,65.4,58.1,27.0,21.5,19.1,23,19,14,30.17,30.07,28,16,38,0.00
2013-10-6,82.4,66.4,48.7,27.3,21.8,14.5,26,19,13,30.13,30.04,20,7,25,0.00
2013-10-7,80.4,59.8,38.7,31.6,20.2,11.3,45,23,14,30.05,29.95,13,4,17,0.00
2013-10-8,71.6,52.2,33.3,52.6,33.2,14.2,100,55,16,29.97,29.81,12,4,17,0.00
2013-10-9,51.3,45.8,42.4,49.3,45.2,42.2,100,98,77,29.81,29.69,12,5,17,0.78
2013-10-10,57.7,47.1,38.5,47.7,43.0,38.0,100,87,63,29.98,29.75,10,3,13,0.02
2013-10-11,69.3,52.6,36.1,49.5,42.6,34.6,100,74,35,30.00,29.93,11,3,14,0.00
2013-10-12,72.3,52.0,37.6,50.8,42.9,36.8,100,77,31,29.97,29.91,14,2,16,0.00
2013-10-13,66.9,49.2,34.0,51.2,41.4,29.6,100,79,26,30.00,29.91,13,3,17,0.00
2013-10-14,73.2,58.2,37.9,42.1,32.5,28.4,100,44,20,30.03,29.96,21,7,25,0.02
2013-10-15,77.0,60.0,42.1,35.8,30.1,21.5,65,35,16,30.03,29.92,15,4,18,0.00
2013-10-16,76.3,59.5,39.6,30.9,26.4,19.9,64,31,14,30.08,30.02,13,4,17,0.00
2013-10-17,75.6,52.6,32.0,41.6,28.8,21.8,76,47,15,30.06,29.95,11,2,15,0.00
2013-10-18,80.4,55.9,33.3,45.6,28.6,23.1,81,44,14,30.06,29.99,19,4,22,0.00
2013-10-19,82.8,57.2,34.9,37.6,27.6,19.5,70,38,13,30.06,30.00,11,2,14,0.00
2013-10-20,79.0,53.8,32.0,39.4,29.2,23.7,78,47,15,30.04,29.94,10,2,14,0.00
2013-10-21,82.6,57.1,32.9,40.6,28.1,19.9,79,40,13,30.02,29.95,11,3,14,0.00
2013-10-22,81.3,64.0,46.8,28.7,22.7,16.3,39,22,13,30.03,29.95,16,6,21,0.00
2013-10-23,80.4,56.2,38.1,51.8,34.9,22.0,95,50,14,29.97,29.90,12,3,16,0.00
2013-10-24,70.2,49.7,33.6,54.4,43.2,30.6,97,80,54,30.04,29.92,8,2,11,0.00
2013-10-25,81.3,56.5,33.8,47.0,35.2,26.9,91,52,15,30.11,30.03,11,2,15,0.00
2013-10-26,82.4,60.3,38.8,41.9,30.5,27.1,64,38,14,30.12,30.03,16,4,21,0.00
2013-10-27,77.5,57.2,37.0,46.8,32.0,25.6,95,45,16,30.04,29.82,14,4,17,0.00
2013-10-28,53.2,47.7,43.7,51.8,46.4,43.7,100,95,77,29.88,29.80,15,7,21,0.34
2013-10-29,54.5,46.8,42.8,47.8,44.0,41.3,100,91,66,29.95,29.86,11,4,15,0.19
2013-10-30,63.5,48.7,34.0,45.8,40.4,31.3,100,76,42,30.03,29.93,10,3,12,0.00
2013-10-31,71.6,51.7,34.2,33.6,29.0,22.1,86,48,16,30.07,30.00,17,5,20,0.00